Wind_Speed
39 38 38 38 38 37 38 38 38 39 39 38 38 39 40 40 40 40 39 39 40 41 41 43 43 43 43 43 43 43 44 44 44 44 44 45 46 46
40 39 39 39 39 39 39 39 40 40 40 39 40 39 40 40 40 40 41 41 41 42 43 43 44 44 44 44 44 45 45 45 46 46 46 47 47 47
41 40 40 39 39 40 40 40 41 41 41 41 41 41 42 42 41 41 41 42 42 43 43 43 44 45 45 45 45 46 46 46 46 46 47 47 48 48
42 41 41 41 41 41 41 42 42 42 42 42 42 42 41 42 42 43 43 43 43 43 44 44 44 45 45 46 46 47 47 47 47 47 48 48 49 49
43 43 43 42 42 42 42 43 43 43 43 43 43 43 42 43 43 44 45 44 44 44 44 44 44 45 46 47 48 48 48 48 48 48 48 49 49 50
43 44 43 44 44 44 44 44 45 45 45 44 44 44 44 44 44 45 46 46 46 45 45 45 45 46 47 48 48 48 48 48 48 48 49 49 50 51
44 45 44 45 45 45 46 46 46 46 46 46 46 45 45 45 45 46 46 46 46 46 46 46 47 47 48 48 48 48 49 49 49 49 50 50 50 51
45 45 45 45 45 46 47 47 47 47 47 47 46 46 45 46 46 46 46 46 46 47 47 47 48 48 49 49 49 49 50 50 50 50 50 50 50 50
46 46 46 46 46 47 46 47 47 47 48 47 47 46 46 47 47 47 47 47 47 47 47 47 48 48 49 49 48 49 49 50 50 50 50 50 50 50
46 46 46 46 46 46 46 46 46 46 47 47 46 47 47 48 48 48 48 49 49 49 48 48 48 48 48 49 49 49 50 50 51 50 50 50 50 51
46 46 46 46 46 45 45 45 45 45 45 45 46 46 47 48 49 50 50 50 50 49 49 49 48 48 49 49 50 50 50 50 50 50 50 50 51 51
45 45 44 44 45 44 44 44 44 44 45 45 46 47 48 49 49 50 50 51 51 50 49 49 49 50 49 49 49 50 51 50 50 50 51 51 52 52
44 43 43 44 44 44 44 44 43 44 44 45 46 46 47 48 49 49 50 50 50 50 50 50 50 50 50 49 49 50 51 51 51 51 51 52 52 52
44 44 44 44 43 43 43 43 44 44 44 45 45 46 46 47 48 48 49 49 50 50 50 50 50 50 50 50 50 50 51 51 51 51 52 52 52 52
45 45 44 44 44 43 43 43 44 44 45 45 46 46 46 47 48 48 48 49 49 49 49 50 50 50 50 51 51 51 50 50 51 51 51 51 51 51
45 45 45 45 44 44 43 44 44 45 45 45 46 46 46 47 47 48 48 49 49 49 49 49 49 50 50 51 51 51 51 51 51 51 50 50 50 50
44 44 44 43 43 44 44 44 44 45 45 45 46 46 46 47 47 48 48 48 48 48 48 48 48 49 50 51 51 51 51 51 51 50 50 49 49 49
42 42 42 42 43 43 44 44 44 45 45 45 45 46 46 47 47 47 47 47 48 48 48 47 47 48 48 50 50 50 50 49 49 49 49 48 47 48
42 42 42 43 43 43 44 45 45 45 46 46 45 46 46 47 47 47 47 47 48 48 48 47 47 47 48 48 49 49 49 49 49 49 49 49 48 48
42 42 42 43 43 44 45 45 45 46 46 46 46 46 46 47 47 47 47 47 48 48 48 48 48 48 49 49 48 48 49 49 49 49 48 48 48 47
43 43 43 43 44 44 44 45 46 46 46 46 46 46 47 47 47 47 47 47 47 47 47 48 48 48 49 49 48 47 48 49 49 48 47 46 45 44
42 43 43 43 43 43 43 44 45 45 46 45 46 46 46 46 46 46 46 46 46 46 46 46 47 47 47 47 47 47 47 47 47 47 46 46 45 43
42 42 42 42 42 42 42 42 43 43 43 43 43 44 44 45 45 45 45 45 44 44 45 45 46 46 46 46 46 46 45 45 45 44 45 45 44 43
Wind_Direction
256 257 258 259 259 261 264 265 267 269 270 272 273 274 275 277 278 279 280 281 282 283 284 285 286 287 288 289 290 290 290 291 291 291 291 291 291 291
255 257 260 260 261 263 264 266 268 270 270 273 273 275 276 276 278 279 280 280 281 283 284 285 286 287 288 289 290 291 290 290 291 291 291 291 291 291
256 257 259 260 263 265 266 268 269 270 271 273 273 275 275 275 277 279 280 281 282 283 284 286 286 287 288 289 290 290 290 291 291 291 291 291 291 291
255 258 259 260 263 265 266 267 269 270 271 272 273 274 274 276 277 278 279 281 282 283 284 285 286 286 287 288 289 291 291 291 291 291 291 291 291 291
255 257 258 261 263 265 266 267 268 270 272 272 272 273 274 275 277 278 279 280 281 282 284 285 286 287 288 289 290 290 292 292 291 292 292 291 292 292
256 258 259 261 263 265 266 267 269 270 271 272 271 273 274 275 276 278 279 280 281 282 284 285 286 287 288 289 290 291 291 292 292 293 293 292 293 293
258 259 260 262 263 265 267 268 269 270 270 272 272 274 274 275 276 278 279 280 281 283 284 285 286 287 289 289 290 291 292 292 292 292 293 292 293 294
260 261 262 263 264 266 268 269 270 269 270 271 272 273 274 275 276 278 280 281 282 283 284 286 287 288 288 288 289 291 292 292 292 292 293 293 294 294
260 261 263 264 266 266 268 269 269 269 270 272 273 275 275 276 277 279 280 281 283 283 284 285 287 288 288 289 289 290 291 292 292 292 292 293 293 293
260 261 262 264 266 267 268 268 269 269 271 272 274 275 276 276 278 279 280 281 282 283 284 286 287 287 288 288 289 290 292 292 292 292 292 293 293 294
261 262 263 264 266 267 267 268 269 270 271 272 274 275 276 277 278 279 280 281 282 283 285 286 286 287 288 289 290 291 292 293 293 293 293 294 294 294
261 262 263 263 265 266 267 269 270 271 272 273 274 276 277 278 279 281 281 282 282 283 285 285 286 287 287 288 289 290 291 292 292 293 293 293 294 294
260 261 263 264 265 266 268 270 271 271 272 274 275 277 278 279 280 282 282 283 283 284 285 285 286 287 287 288 288 289 290 291 292 292 293 294 294 294
259 261 262 264 265 267 268 270 271 272 274 275 276 277 278 279 281 282 283 284 284 284 285 286 287 287 287 288 288 289 290 291 292 293 293 294 294 294
259 261 262 264 265 267 269 270 272 273 275 276 276 278 279 280 281 283 284 285 285 285 285 286 287 287 288 289 289 289 290 291 291 292 293 293 293 294
258 260 262 264 265 267 269 271 273 275 276 276 278 279 280 281 282 283 284 285 285 286 286 287 287 288 288 289 290 290 291 291 291 292 293 293 294 294
258 260 261 263 265 267 269 271 273 274 276 277 278 279 280 281 282 283 284 285 285 286 286 287 288 289 289 290 290 291 291 291 292 292 292 293 293 294
259 260 261 263 265 268 269 271 273 274 275 277 279 280 280 282 283 283 284 285 285 286 286 286 287 289 290 291 291 291 291 292 292 292 293 293 294 294
258 259 262 264 265 268 270 271 273 274 275 277 278 279 280 282 283 284 284 285 286 286 286 287 288 289 290 290 291 291 291 291 291 292 293 294 294 294
259 260 262 264 267 269 270 272 273 274 275 276 276 278 280 282 284 284 285 286 286 287 287 288 289 289 290 290 290 290 290 291 291 292 292 293 294 294
260 261 263 265 267 269 270 272 274 274 275 276 277 278 280 282 283 284 285 286 287 286 287 288 289 289 290 291 290 290 291 292 292 292 292 292 293 294
262 263 264 265 267 270 272 273 274 275 276 276 278 279 280 282 283 285 286 287 286 287 287 288 289 289 290 290 291 291 291 291 292 293 293 293 294 294
262 263 264 266 268 270 271 273 275 276 276 277 279 281 282 283 285 286 287 287 287 287 289 290 290 290 290 291 291 291 291 291 292 292 293 293 294 293
Height
5749 5751 5753 5754 5756 5757 5759 5760 5761 5762 5763 5763 5763 5763 5762 5762 5762 5761 5760 5759 5758 5757 5756 5755 5753 5751 5749 5747 5744 5742 5739 5737 5734 5731 5729 5726 5723 5720
5740 5742 5744 5745 5747 5748 5749 5750 5751 5752 5753 5754 5753 5752 5752 5752 5751 5751 5750 5749 5748 5747 5745 5743 5742 5740 5738 5736 5733 5730 5728 5725 5722 5719 5717 5714 5711 5708
5730 5733 5735 5736 5737 5738 5739 5740 5741 5741 5742 5743 5743 5742 5742 5742 5741 5740 5740 5738 5737 5736 5734 5732 5730 5729 5727 5724 5722 5719 5716 5713 5710 5707 5704 5701 5698 5696
5721 5723 5725 5726 5728 5728 5729 5730 5730 5731 5732 5732 5732 5732 5732 5731 5731 5730 5729 5727 5726 5724 5722 5721 5719 5717 5715 5712 5710 5707 5704 5701 5698 5695 5692 5689 5686 5683
5710 5712 5714 5716 5717 5718 5719 5719 5720 5720 5721 5721 5722 5721 5721 5720 5719 5719 5717 5716 5715 5713 5711 5709 5707 5705 5703 5700 5698 5695 5692 5689 5686 5682 5679 5676 5673 5670
5700 5702 5703 5705 5706 5707 5708 5708 5709 5709 5710 5710 5711 5711 5710 5709 5708 5707 5706 5705 5703 5702 5700 5698 5696 5693 5691 5688 5686 5683 5680 5677 5673 5670 5667 5663 5660 5657
5689 5691 5692 5693 5694 5695 5696 5697 5697 5698 5698 5698 5699 5699 5699 5698 5697 5696 5695 5693 5692 5690 5688 5686 5684 5681 5679 5676 5673 5671 5667 5664 5661 5657 5654 5651 5647 5644
5678 5679 5680 5682 5683 5684 5684 5685 5685 5686 5686 5686 5687 5687 5686 5685 5685 5684 5683 5682 5681 5680 5677 5675 5672 5669 5666 5664 5661 5658 5654 5651 5648 5644 5641 5638 5634 5630
5666 5667 5669 5670 5671 5672 5672 5673 5673 5673 5674 5674 5674 5674 5674 5673 5672 5671 5670 5669 5669 5667 5664 5663 5659 5657 5653 5650 5648 5645 5642 5638 5634 5631 5628 5624 5621 5617
5654 5655 5657 5658 5659 5660 5660 5661 5661 5661 5661 5661 5661 5661 5660 5660 5659 5658 5657 5656 5655 5653 5651 5650 5647 5644 5641 5637 5634 5631 5628 5625 5621 5618 5614 5611 5607 5604
5642 5644 5645 5646 5647 5648 5648 5649 5649 5649 5649 5648 5648 5647 5647 5646 5645 5644 5643 5642 5642 5640 5638 5636 5634 5632 5629 5625 5621 5618 5615 5612 5608 5604 5601 5597 5593 5590
5631 5632 5633 5634 5635 5635 5636 5637 5637 5637 5637 5636 5635 5635 5634 5633 5631 5630 5629 5628 5627 5627 5624 5622 5620 5618 5617 5613 5609 5605 5601 5598 5595 5591 5587 5583 5579 5576
5618 5620 5621 5622 5623 5624 5624 5625 5625 5625 5624 5624 5623 5622 5621 5620 5618 5617 5615 5614 5613 5612 5610 5608 5606 5603 5601 5600 5596 5592 5588 5585 5581 5577 5573 5569 5564 5561
5606 5608 5609 5610 5611 5612 5613 5613 5613 5613 5612 5611 5611 5610 5609 5607 5605 5603 5601 5599 5598 5597 5595 5593 5592 5589 5587 5585 5582 5579 5575 5571 5567 5564 5559 5555 5550 5546
5594 5596 5597 5598 5599 5600 5601 5601 5601 5600 5600 5599 5598 5597 5596 5594 5592 5590 5588 5586 5584 5582 5581 5579 5577 5575 5572 5570 5568 5565 5562 5558 5553 5550 5546 5541 5537 5533
5581 5583 5585 5586 5587 5588 5588 5588 5588 5588 5587 5586 5585 5584 5583 5581 5579 5577 5575 5573 5571 5569 5567 5565 5562 5560 5558 5555 5552 5550 5546 5543 5540 5536 5532 5528 5523 5519
5569 5571 5573 5574 5575 5576 5576 5576 5576 5575 5575 5574 5573 5572 5570 5568 5566 5564 5562 5560 5558 5556 5554 5551 5549 5546 5543 5541 5538 5535 5531 5528 5524 5521 5518 5515 5510 5505
5557 5559 5561 5562 5563 5563 5564 5564 5564 5563 5562 5561 5560 5559 5557 5556 5554 5551 5549 5547 5545 5543 5541 5539 5536 5533 5530 5527 5524 5520 5517 5514 5510 5507 5503 5501 5498 5493
5545 5547 5549 5550 5550 5551 5551 5551 5551 5550 5549 5548 5547 5546 5544 5543 5541 5538 5536 5534 5531 5529 5527 5525 5522 5520 5517 5515 5511 5506 5503 5500 5497 5494 5490 5487 5484 5480
5534 5535 5537 5538 5538 5538 5538 5538 5538 5537 5537 5535 5534 5533 5531 5529 5527 5525 5523 5520 5518 5515 5513 5510 5508 5505 5502 5500 5498 5494 5488 5486 5483 5480 5477 5474 5470 5466
5522 5523 5525 5525 5525 5526 5526 5525 5525 5524 5523 5522 5521 5519 5518 5516 5514 5512 5509 5506 5504 5502 5499 5497 5493 5491 5488 5485 5483 5481 5476 5471 5468 5465 5463 5460 5458 5455
5510 5511 5512 5512 5513 5513 5513 5513 5512 5511 5510 5509 5507 5506 5504 5502 5500 5498 5495 5493 5491 5488 5486 5483 5480 5477 5474 5471 5468 5466 5464 5459 5455 5451 5447 5445 5442 5441
5497 5498 5499 5500 5500 5501 5500 5500 5499 5498 5497 5496 5495 5493 5491 5489 5487 5485 5482 5480 5478 5475 5472 5470 5467 5463 5460 5457 5455 5452 5450 5447 5443 5440 5436 5431 5429 5426